Location: Akdamlar
(36.8729°N, 30.5187°E)
Time: 20:59:27
(UTC+00:00)

Cosmos 372 Rocket - Pass Details

Date: 18 September 2020
Orbit: 739 x 767 km, 74.1° (Epoch: 24 October)

Event Time Altitude Azimuth Distance (km) Brightness Sun altitude
Rises 17:00:13 0° 186° (S) 3,219 7.2 -12.7°
Reaches altitude 10° 17:02:36 10° 183° (S) 2,296 6.4 -13.1°
Maximum altitude 17:07:44 60° 104° (ESE) 872 4.0 -14.1°
Drops below altitude 10° 17:12:53 10° 26° (NNE) 2,304 6.4 -15.1°
Sets 17:15:16 0° 22° (NNE) 3,231 7.2 -15.6°
